Regional Weather Roundup
Issued by NWS Wakefield, VA

Home | Current Version | Previous Version | Text Only | Print | Product List | Glossary On
Versions: 1 2 3 4 5 6 7 8 9 10 11 12 13 14 15 16 17 18 19 20 21 22 23 24 25 26 27
000
ASUS41 KAKQ 161515
RWRAKQ

REGIONAL WEATHER ROUNDUP
NATIONAL WEATHER SERVICE WAKEFIELD VA
1100 AM EDT WED AUG 16 2017

Note: "fair" indicates few or no clouds below 12,000 feet with no
significant weather and/or obstructions to visibility. * = Denotes
station may not report precipitation (e.g., rain,snow,etc.),
thunder or fog.

VAZ042-051-052>054-056-161600-
NORTHERN VIRGINIA

CITY           SKY/WX    TMP DP  RH WIND       PRES   REMARKS
WASH NATIONAL  CLOUDY    81  74  79 E6        30.02R
DULLES         PTSUNNY   82  73  74 NW8       30.03R
FORT BELVOIR   MOSUNNY   81  73  76 CALM      30.02S
QUANTICO       PTSUNNY   78  75  90 S5        30.03S
FREDERICKSBRG* MOSUNNY   79  78  98 CALM      30.02S
STAFFORD*      MOSUNNY   79  76  90 CALM      30.06F
WARRENTON      MOSUNNY   84  70  63 CALM      30.03S
CULPEPER*      SUNNY     84  73  69 N5        30.04S
MANASSAS*      MOSUNNY   79  73  82 E3        30.03S
LEESBURG*      PTSUNNY   82  75  78 NW6       30.04S
WINCHESTER     PTSUNNY   77  68  73 NW7       30.05S
FRONT ROYAL*   MOSUNNY   77  72  83 CALM      30.05S
LURAY*         MOSUNNY   77  72  83 SW3       30.06F
$$

VAZ048-049-060>072-079>083-161600-
CENTRAL AND SOUTH CENTRAL VIRGINIA

CITY           SKY/WX    TMP DP  RH WIND       PRES   REMARKS
RICHMOND       MOSUNNY   81  74  79 NW6       30.03S
CHESTERFIELD*  FAIR      81  73  76 NE6       30.04S
PETERSBURG*    SUNNY     80  70  72 NE5       30.04R
HANOVER        MOSUNNY   80  71  74 CALM      30.05R
TAPPAHANNOCK*  MOSUNNY   82  70  66 CALM      30.03S
QUINTON*       FAIR      79  74  85 MISG      30.02S
CHARLOTTSVILLE SUNNY     84  71  65 VRB3      30.04F
GORDONSVILLE*  MOSUNNY   83  73  71 CALM      30.03F
ORANGE*        MOSUNNY   82  72  69 CALM      30.03F
LOUISA*        MOSUNNY   82  73  74 CALM      30.04S
BUMPASS*       PTSUNNY   81  76  86 CALM      30.04S
FARMVILLE*     MOSUNNY   86  68  56 NE5       30.03F
CREWE*         PTSUNNY   78  74  86 CALM      30.05R
FORT PICKETT*  PTSUNNY  N/A N/A N/A N5        30.05R
CHASE CITY*    PTSUNNY   79  76  91 NE3       30.05S
CLARKSVILLE*   CLOUDY    79  73  83 CALM      30.04S
SOUTH HILL*    PTSUNNY   78  74  85 N3        30.10R
LAWRENCEVILLE* PTSUNNY   80  73  78 CALM      30.04R
EMPORIA*       PTSUNNY   79  72  78 CALM      30.04S
$$

VAZ088>098-161600-
SOUTHEAST VIRGINIA

CITY           SKY/WX    TMP DP  RH WIND       PRES   REMARKS
NORFOLK        PTSUNNY   82  76  81 N10       30.00S
VIRGINIA BEACH PTSUNNY   81  71  71 N13       29.99S
NORFOLK NAVAL  MOSUNNY   83  74  74 N9        30.02R
WEST POINT*    SUNNY     81  72  74 N5        30.03S
SALUDA*        FAIR      79  75  85 NW5       30.01S
NEWPORT NEWS   MOSUNNY   82  73  74 VRB3      30.01S
LANGLEY AFB    PTSUNNY   81  74  78 N7        30.00S
FORT EUSTIS    MOSUNNY   83  74  73 NW7       29.99S
WILLIAMSBURG*  SUNNY     82  75  78 CALM      30.02S
HR EXEC AP*    PTSUNNY   81  73  78 N3        29.98S
FRANKLIN*      MOSUNNY   81  73  76 N6        30.01S
US460-WAKEFLD  MOSUNNY   80  73  79 VRB5      30.02S
$$

VAZ020-022-025-037-045-161600-
WEST CENTRAL AND SOUTHWEST VIRGINIA

CITY           SKY/WX    TMP DP  RH WIND       PRES   REMARKS
STAUNTON*      SUNNY     76  70  79 CALM      30.10F
WAYNESBORO*    MOSUNNY   79  70  74 W5        30.10S
HOT SPRINGS VA SUNNY     70  63  78 NW8       30.23R
LYNCHBURG      SUNNY     83  70  64 N5        30.07S
DANVILLE       SUNNY     84  75  74 CALM      30.05F
SOUTH BOSTON*  CLOUDY    78  75  91 CALM      30.06S
MARTINSVILLE   SUNNY     83  69  62 E3        30.09F
ROANOKE        MOSUNNY   88  69  53 VRB3      30.10F
BLACKSBURG       N/A    N/A N/A N/A MISG        N/A
DUBLIN*        MOSUNNY   78  66  65 CALM      30.16S
MARION*        SUNNY     80  65  62 SW5       30.19S
HILLSVILLE*    MOSUNNY   72  64  76 CALM      30.17S
RICHLANDS*     FAIR      73  66  77 CALM      30.18S
WISE*          PTSUNNY   77  64  65 CALM      30.19R
ABINGDON*      CLOUDY    75  73  96 CALM      30.16S
$$

MDZ021>025-VAZ099-100-161600-
SOUTHERN MARYLAND AND THE DELMARVA PENINSULA

CITY           SKY/WX    TMP DP  RH WIND       PRES   REMARKS
PATUXENT RIVER PTSUNNY   81  75  82 VRB5      30.01R
BAY BRIDGE APT MOSUNNY   77  73  88 CALM      30.01R FOG
LEONARDTOWN    SUNNY     81  72  74 W3        30.03S
DOVER          MOSUNNY   80  80 100 NW3       29.98S
GEORGETOWN     SUNNY     81  70  69 N5        30.01R
EASTON         SUNNY     82  73  74 CALM      30.04R
CAMBRIDGE      SUNNY     81  73  78 VRB5      30.00S
SALISBURY      MOSUNNY   80  73  79 NW5       30.00S
OCEAN CITY     PTSUNNY   80  73  79 VRB3      30.01R
WALLOPS ISLAND CLOUDY    78  74  87 N5        30.01R
ACCOMACK*      CLOUDY    79  74  84 N7        30.01R
$$

NCZ012>017-030>032-161600-
NORTH CENTRAL AND EASTERN NORTH CAROLINA

CITY           SKY/WX    TMP DP  RH WIND       PRES   REMARKS
ROANOKE RAPIDS CLOUDY    79  73  83 N5        30.03S
RALEIGH        MOSUNNY   84  72  67 E8        30.04S
ELIZABETH CITY PTSUNNY   82  76  81 N8        30.00S
AHOSKIE*         N/A     81  74  79 N7        30.01S
EDENTON*       CLOUDY    85  77  77 CALM      30.01S
CURRITUCK*     PTSUNNY   83  56  39 NE8       30.01S
KILL DEVIL HLS MOSUNNY   80  74  83 CALM      29.99S
MANTEO         CLOUDY    80  75  86 NE7       30.00S
CAPE HATTERAS  PTSUNNY   84  78  82 VRB7      29.99R HX  95
TARBORO*       NOT AVBL
GOLDSBORO      PTSUNNY   81  81 100 N7        30.02R
WASHINGTON     PTSUNNY   80  74  82 NE6       30.01S
GREENVILLE     PTSUNNY   81  75  83 N6        30.03S
NEW BERN       CLOUDY    80  77  90 N6        30.02R
WILMINGTON     MOSUNNY   87  76  69 N6        30.00S HX  97
$$

VAZ048-161600-
ELSEWHERE

CITY           SKY/WX    TMP DP  RH WIND       PRES   REMARKS
HARRISBURG PA  CLOUDY    77  71  82 W8        30.01S
BALTIMORE      CLOUDY    82  73  74 N3        30.00S
ANNAPOLIS      MOSUNNY   82  76  81 CALM      30.01R
ANDREWS AFB    MOSUNNY   81  72  72 NW6       30.01S
PHILADELPHIA   CLOUDY    81  68  64 NW7       30.00R
HENDERSON NC   MOSUNNY   78  70  77 N5        30.05S
GREENSBORO     PTSUNNY   83  75  77 NE6       30.07R
ROCKY MOUNT    CLOUDY    78  74  87 NE8       30.03S
$$

VAZ100-161600-
MARINE

STATION/POSITION TIME  TEMP    WIND        PRES    WAVE   SWELL
                       AIR SEA DIR/SP/G            HT/PER HT/PER
                 (UTC) (F)     (DEG/KT/KT) (MB)    (FT/S) (FT/S)
BRANDYWINE LGT   1436   74     320/  5/  7 1016.1R
CAPE MAY NJ      1448   77 77  320/  8/ 11 1015.2R
LEWES DE         1448   75 76  330/  5/  6 1015.6R
15NM E FENWICK I 1450   76 76  320/ 10/ 12 1016.0R   4/12   3/12
OCEAN-CITY-INLET 1448   77 79  360/  4/  5 1016.3R
WACHAPREAGUE VA  1448   78 81   30/  7/  9 1016.0R
THOMAS POINT MD  1500   75 79   CALM  /  1   N/A
GOOSES REEF MD   1500   78 79     CALM     1017.1    0
COVE POINT MD    1448   77      20/  4/  6 1017.0R
SOLOMONS ISLAND  1448   80 80  290/  6/  8   N/A
BISHOPS HEAD MD  1448   79 80   40/  5/  6 1016.2R
PINEY POINT MD   1448          320/  8/  9   N/A
POTOMAC MD       1500   78 81  280/  4/  6 1015.6    0
CAMBRIDGE MD     1436   81 81              1016.8R
LEWISETTA VA     1448   80 81  350/  4/  5 1016.3R
RAPPAHANNOCK LGT 1448          350/ 11/ 11 1016.7R
STINGRAY PT      1500   78 80   40/  8/ 10 1016.5    1/ 2
YORK RVR RNG VA  1448   78     350/  8/  9 1016.5R
YORKTOWN VA      1448   78 80  300/  5/  7 1015.8F
JAMESTOWN VA     1500      82  330/  6/  8   N/A     0
DOMINION TERM VA 1448   79     300/  7/ 10 1016.0S
KIPTOPEKE VA     1448      79  330/ 12/ 14   N/A
CHES BAY BRIDGE  1448   78 79   20/ 12/ 13 1015.9R
CAPE HENRY VA    1448   78     340/  9/ 11   N/A
WILLOUBY STN VA  1436   79     350/  8/  8 1016.1R
S CRANEY ISL VA  1448   79     360/  6/  8 1015.9R
CAPE HENRY BUOY  1500      78                N/A     3/11   2/11
1ST LANDING BUOY 1500   79 78              1015.9    2/ 3
64NM E OF VA BCH 1450   77 78   10/  6/  8 1016.2R   4/11   3/11
DUCK PIER NC     1448   77 78   10/  9/ 11 1015.5R
44100 DUCK FRF   1405      79                N/A     3/11   2/11
44056 DUCK FRF   1500      78                N/A     3/ 8   2/11
OREGON INLET NC  1436   80 82   10/ 10/ 14 1015.5R
HATTERAS NC      1448   82 83   30/  7/ 10 1015.4R
DIAMOND SHLS NC  1450   81 83   30/  8/ 10 1015.2R   3/ 8   2/ 8
CAPE LOOKOUT NC  1500   82      60/  6/  7 1015.2R
$$




USA.gov is the U.S. government's official web portal to all federal, state and local government web resources and services.